Terminal Aerodrome Forecast
Issued by NWS Pocatello, ID

Home | Current Version | Previous Version | Text Only | Print | Product List | Glossary On
Versions: 1 2 3 4 5 6 7 8 9 10 11 12 13 14
000
FTUS45 KPIH 301100
TAFBYI
TAF
KBYI 301120Z 3012/3112 VRB05KT P6SM SCT200
     FM301800 VRB05KT P6SM VCTS SCT080CB BKN150
     FM310400 VRB05KT P6SM FEW080 SCT150=

USA.gov is the U.S. government's official web portal to all federal, state and local government web resources and services.